Regional Weather Roundup
Issued by NWS

Home | Current Version | Previous Version | Text Only | Print | Product List | Glossary On
Versions: 1 2 3 4 5 6 7 8 9 10 11 12 13 14 15 16 17 18 19 20 21 22 23 24 25 26 27 28 29 30 31 32 33 34 35 36 37 38 39 40 41 42 43 44 45 46 47 48 49 50
000
ASUS46 KSTO 250704
RWRCA

NORTHERN AND CENTRAL CA REGIONAL WEATHER ROUNDUP
NATIONAL WEATHER SERVICE SACRAMENTO CA
1200 AM PDT FRI JUL 25 2014

NOTE: FAIR INDICATES FEW OR NO CLOUDS BELOW 12,000 FEET WITH NO
SIGNIFICANT WEATHER AND/OR OBSTRUCTIONS TO VISIBILITY.

CAZ001-003-250800-
NORTHWEST AREA

CITY           SKY/WX    TMP DP  RH WIND       PRES   REMARKS
CRESCENT CITY  CLEAR     57  54  89 N10G21    30.00S
UKIAH          CLEAR     67  46  47 CALM      29.88S
$$

CAZ006-505>513-250800-
BAY AREA

CITY           SKY/WX    TMP DP  RH WIND       PRES   REMARKS
SANTA ROSA     CLEAR     63  51  65 CALM      29.84R
SAN RAFAEL     N/A       74  MM  MM MISG
NAPA           CLEAR     65  57  75 SW6       29.84S
CONCORD        CLEAR     72  52  49 S5        29.83S
OAKLAND CITY   N/A       68  MM  MM MISG
OAKLAND        CLEAR     65  56  72 NW6       29.87R
SAN FRAN CITY  N/A       62  MM  77 MISG
SAN FRAN ARPT  CLEAR     64  57  78 W9        29.86S
LIVERMORE      CLEAR     73  51  46 CALM      29.85S
HAYWARD        CLEAR     69  60  73 CALM      29.86S
REDWOOD CITY   N/A       MM  MM  MM MISG
MOFFETT ARPT   CLEAR     69  58  67 CALM      29.87S
SAN JOSE ARPT  CLEAR     69  54  58 CALM      29.86S
$$
CAZ034-037-514>518-250800-
CENTRAL COAST

CITY           SKY/WX    TMP DP  RH WIND       PRES   REMARKS
WATSONVILLE    CLEAR     64  56  75 CALM      29.88S
SALINAS        CLEAR     63  56  78 NW8       29.87S
MONTEREY       CLEAR     62  56  80 CALM      29.89S
SAN LUIS OBISP CLEAR     59  56  89 NW3       29.87S
SANTA MARIA    CLEAR     60  56  86 CALM      29.88S FOG
$$
CAZ015-016-250800-
NORTHERN SACRAMENTO VALLEY

CITY           SKY/WX    TMP DP  RH WIND       PRES   REMARKS
REDDING        CLEAR     82  35  18 N6        29.83R
RED BLUFF      CLEAR     79  32  18 NW7       29.82R
OROVILLE       CLEAR     79  47  32 E7        29.82S
$$
CAZ016>018-250800-
SOUTHERN SACRAMENTO VALLEY

CITY           SKY/WX    TMP DP  RH WIND       PRES   REMARKS
AUBURN         CLEAR     73  45  35 E6        29.89S
LINCOLN        FAIR      63  50  63 E7        29.80S
MARYSVILLE     CLEAR     70  52  52 E6        29.80S
SAC INTL ARPT  CLEAR     72  55  55 S5        29.80R
MATHER AIRPORT CLEAR     72  52  49 SE3       29.81S
DOWNTOWN SAC   N/A       75  MM  MM MISG
SAC EXEC ARPT  CLEAR     73  54  51 CALM      29.81R
VACAVILLE      CLEAR     69  49  48 CALM      29.81S
TRAVIS AFB     CLEAR     71  51  49 SW14      29.79F
$$
CAZ019>021-250800-
SAN JOAQUIN VALLEY

CITY           SKY/WX    TMP DP  RH WIND       PRES   REMARKS
STOCKTON       CLEAR     73  53  49 W3        29.81S
MODESTO        CLEAR     77  55  46 N7        29.81R
MERCED           N/A     79  54  41 N9        29.81R
LEMOORE        PTCLDY    75  52  44 NW8       29.82S
FRESNO         PTCLDY    83  54  36 NW5       29.82S
HANFORD        CLEAR     79  57  46 NW6       29.82S
PORTERVILLE    CLEAR     75  54  46 SE7       29.85R
BAKERSFIELD    CLEAR     83  51  33 CALM      29.83R
$$
CAZ011-012-071-250800-
NORTHERN MOUNTAINS

CITY           SKY/WX    TMP DP  RH WIND       PRES   REMARKS
YREKA          CLEAR     63  45  51 N12       30.09R
MOUNT SHASTA   CLEAR     64  40  41 VRB3      30.08F
ALTURAS        CLEAR     60  26  27 NE3       30.11R
$$
CAZ011-012-071-250800-
SIERRA NEVADA MTNS

CITY           SKY/WX    TMP DP  RH WIND       PRES   REMARKS
BLUE CANYON    CLEAR     67  41  38 NE3       30.13S
TRUCKEE        CLEAR     52  39  62 SE3       30.17S
TAHOE VLY ARPT CLEAR     55  42  61 S3        30.19S
MAMMOTH LAKES  FAIR      61  28  29 CALM      30.23R
$$



USA.gov is the U.S. government's official web portal to all federal, state and local government web resources and services.